User: anonymous   Login
Location: Unspecified
(48.5670°N, 0.0000°E)
Time: 18:54:10
(UTC+00:00)
Language:

S-56A Canister/Altair - Orbit

View from above orbital plane
View from above orbital plane
View from above satellite
View from above satellite

Ground track
Ground track

The orbit data is extracted from the following two-line orbital elements,

1    82U 61004B   19195.87920565 +.00000068 +00000-0 +79534-4 0  9994
2    82 038.8662 012.0374 1175655 249.5190 097.5600 12.26042343766252
Epoch (UTC): 14 July 2019 21:06:03
Eccentricity: 0.1175655
inclination: 38.8662°
perigee height: 632 km
apogee height: 2500 km
right ascension of ascending node: 12.0374°
argument of perigee: 249.5190°
revolutions per day: 12.26042343
mean anomaly at epoch: 97.5600°
orbit number at epoch: 76625

The dashed part of the orbit path shows where the satellite is in the earth's shadow,  

DLR